[[{"header":{"parameterUnit":"m.s-1","parameterCategory":1,"la1":30.2991,"la2":30.254,"lo1":-89.0895,"lo2":-89.0444,"dy":0.0017,"dx":0.0017,"nx":28,"ny":28,"refTime":"2025-07-16T21:00:00:Z","depth":0,"parameterNumber":2,"parameterNumberName":"U-component_of_WINDS"},"data":[0,0,0,0,0,0,0,0,0,0,0,0,0,0,0,0,0,0,0,0,0,0,0,0,0,0,0,0,0,0,0,0,0,0,0,0,0,0,0,0,0,0,0,0,0,0,0,0,0,0,0,0,0,0,0,0,0,0,0.8937,0.894,0,0.9206,0.9209,0.9212,0.9281,0.9279,0.9277,0.9276,0.9562,0.957,0.958,0,0,0,0,0,0,0,0,0,0,0,0,0,0.8491,0.8499,0.8937,0.894,0.8944,0.9205,0.9209,0.9213,0.9281,0.9279,0.9277,0.9275,0.9559,0.9569,0.958,0,0,0,0,0,0,0,0,0,0,0,0,0,0.8715,0.8502,0.8936,0.9009,0.9018,0.9204,0.9209,0.9214,0.9281,0.9279,0.9276,0.9274,0.9555,0.9568,0.9582,0.9718,0,0,0.9624,0.963,0,0,0,0,0,0,0,0,0.8702,0.8731,0.8995,0.9004,0.9015,0.9207,0.9157,0.9383,0.9282,0.9182,0.9276,0.9273,0.9446,0.9469,0.9525,0.9732,0.9744,0.9625,0.9634,0.964,0.9644,0,0,0,0,0,0,0,0.8687,0.872,0.9044,0.8999,0.9011,0.9031,0.906,0.92,0.9326,0.919,0.9196,0.9226,0.9451,0.9512,0.9532,0.9748,0.9625,0.9637,0.9646,0.9651,1.0079,1.0082,0,0,0,0,0,0,0.8657,0.8707,0.9035,0.9052,0.8849,0.9041,0.9073,0.9148,0.9324,0.9348,0.9228,0.9228,0.9489,0.9516,0.9543,0.9713,0.964,0.9652,0.966,1.0076,1.0079,1.0083,0,0,0,0,0,0,0.8648,0.8686,0.9024,0.8881,0.8925,0.9051,0.9135,0.9155,0.9215,0.9352,0.9376,0.9266,0.9488,0.9523,0.9673,0.9724,0.9659,0.9671,1.0072,1.0077,1.0081,1.0055,0,0,0,0,0,0,0.8634,0.8682,0.8733,0.8881,0.8933,0.9147,0.9138,0.9162,0.9237,0.924,0.9394,0.9418,0.9489,0.9652,0.9687,0.9742,0.9682,1.0068,1.0074,1.0079,1.0052,1.0058,1.0063,0,0,0,0,0,0.8618,0.8718,0.8736,0.8775,0.8999,0.915,0.918,0.9257,0.9241,0.9295,0.9383,0.9413,0.9712,0.9667,0.9706,0.9766,1.0065,1.0072,1.0079,1.0049,1.0057,1.0063,0,0,0,0,0,0,0.8578,0.8739,0.876,0.891,0.9015,0.9161,0.9232,0.9263,0.9378,0.9376,0.947,0.9504,0.9647,0.9722,0.9669,0.9907,0.9889,0.9904,0.9853,0.9861,0.9867,0.9846,0.9693,0,0,0,0,0,0.8585,0.8691,0.8828,0.8948,0.8999,0.9105,0.9175,0.9224,0.9338,0.9384,0.9484,0.9596,0.9715,0.9792,0.991,1.0062,1.0097,1.0123,1.0129,1.0133,1.0145,1.023,1.0243,1.0105,1.0105,1.0105,0,0,0.8604,0.8705,0.8768,0.8942,0.9029,0.9139,0.9143,0.926,0.9343,0.9404,0.9549,0.9626,0.9758,0.9908,0.998,0.9975,1.019,1.0142,1.0144,1.0155,1.0239,1.0252,1.0263,1.011,1.0109,1.0108,0,0,0.8694,0.8781,0.8889,0.8975,0.9105,0.9175,0.9201,0.9341,0.9393,0.954,0.9587,0.9689,0.9892,0.9984,1.0057,1.0177,1.0209,1.0213,1.0244,1.0326,1.0337,1.0347,1.0389,1.0404,1.0225,1.0225,1.0225,0,0.8702,0.8867,0.8942,0.9055,0.913,0.9185,0.9296,0.9377,0.9541,0.9592,0.9583,0.9838,0.9931,1.0103,1.0132,1.0189,1.0223,1.0197,1.0328,1.0339,1.035,1.0392,1.0408,1.0224,1.0224,1.0224,1.0224,0,0.887,0.8983,0.9055,0.9206,0.929,0.9402,0.9495,0.9571,0.9613,0.9684,0.9833,0.9945,1.0085,1.013,1.0174,1.0309,1.0301,1.0309,1.0293,1.0361,1.0402,1.0419,1.0224,1.0224,1.0224,1.0224,0,0,0.8945,0.9132,0.9158,0.9226,0.9372,0.9463,0.9577,0.9709,0.9773,0.9883,0.9982,1.0151,1.0158,1.0241,1.0296,1.0367,1.0454,1.0367,1.0371,1.0379,1.0609,1.0602,1.0619,1.0475,1.0479,1.0481,1.0598,0,0.9053,0.9255,0.9324,0.9493,0.9598,0.965,0.9749,0.9851,0.992,1.0022,1.01,1.0217,1.0218,1.0268,1.0341,1.0428,1.0502,1.042,1.0571,1.0575,1.0536,1.0641,1.0635,1.074,1.0614,1.0617,1.0619,0,0.9207,0.9314,0.9491,0.9621,0.9668,0.9756,0.9882,0.9978,1.0094,1.014,1.0229,1.0277,1.0401,1.0376,1.0548,1.0491,1.0556,1.0608,1.0614,1.0632,1.0602,1.0662,1.0775,1.079,1.0645,1.0643,1.0641,0,0.9243,0.9432,0.9562,0.9619,0.9774,0.9834,0.9903,1.0016,1.009,1.0202,1.0251,1.0377,1.0446,1.0543,1.0624,1.0599,1.0789,1.0771,1.0831,1.0829,1.0871,1.0867,1.0996,1.0911,1.0911,1.0911,1.091,0,0.9357,0.9464,0.958,0.966,0.9781,0.986,0.9978,1.005,1.015,1.0246,1.03,1.039,1.0491,1.0595,1.066,1.0792,1.0824,1.0865,1.0881,1.086,1.0855,1.0906,1.0901,1.0915,1.0914,1.0913,1.0913,0,0.9419,0.9501,0.9646,0.9779,0.9814,0.9898,1.0013,1.0094,1.0163,1.0284,1.0318,1.0429,1.0553,1.0643,1.0806,1.0849,1.0991,1.1007,1.095,1.0958,1.1013,1.1007,1.118,1.1207,1.1103,1.1104,1.1105,0,0.9487,0.9569,0.9709,0.9775,0.9841,0.9948,1.0023,1.0104,1.018,1.0316,1.0381,1.0508,1.0614,1.0811,1.0908,1.1032,1.1052,1.1104,1.1072,1.1047,1.1053,1.1047,1.1056,1.1109,1.111,1.111,1.1111,0,0.9598,0.9633,0.9737,0.9854,0.994,1.0038,1.0137,1.0189,1.0287,1.037,1.0496,1.0577,1.074,1.0866,1.0999,1.1073,1.1109,1.112,1.114,1.1121,1.1084,1.1104,1.0963,1.1116,1.1116,1.1115,1.1115,1.1115,0.9666,0.974,0.9849,0.9962,1.0043,1.0133,1.0214,1.0292,1.0396,1.0532,1.0574,1.0704,1.0818,1.0999,1.1073,1.1178,1.1176,1.1206,1.1214,1.122,1.1219,1.1066,1.1203,1.1203,1.1203,1.1203,1.1203,0,0.9779,0.985,0.9953,1.0086,1.0176,1.0196,1.0306,1.038,1.0492,1.0593,1.0694,1.0838,1.096,1.1064,1.1191,1.1254,1.1274,1.1285,1.1282,1.1298,1.1213,1.1183,1.1267,1.1267,1.1267,1.1267,1.1267,1.1266,0.9849,0.9975,1.0023,1.019,1.0262,1.0386,1.0447,1.053,1.061,1.0767,1.0866,1.0932,1.1035,1.1168,1.1281,1.1309,1.1354,1.136,1.1392,1.1312,1.1304,1.1297,1.1269,1.1369,1.1369,1.1469,1.1469,1.147]},{"header":{"parameterUnit":"m.s-1","parameterCategory":1,"la1":30.2991,"la2":30.254,"lo1":-89.0895,"lo2":-89.0444,"dy":0.0017,"dx":0.0017,"nx":28,"ny":28,"refTime":"2025-07-16T21:00:00:Z","depth":0,"parameterNumber":3,"parameterNumberName":"V-component_of_WINDS"},"data":[0,0,0,0,0,0,0,0,0,0,0,0,0,0,0,0,0,0,0,0,0,0,0,0,0,0,0,0,0,0,0,0,0,0,0,0,0,0,0,0,0,0,0,0,0,0,0,0,0,0,0,0,0,0,0,0,0,0,6.2019,6.2021,0,6.2186,6.2188,6.219,6.2191,6.2189,6.2187,6.2185,6.2351,6.2358,6.2364,0,0,0,0,0,0,0,0,0,0,0,0,0,6.1697,6.1703,6.2019,6.2021,6.2023,6.2186,6.2188,6.219,6.2191,6.2189,6.2186,6.2184,6.2349,6.2357,6.2364,0,0,0,0,0,0,0,0,0,0,0,0,0,6.1848,6.1705,6.2018,6.2043,6.2047,6.2185,6.2188,6.2191,6.2192,6.2189,6.2185,6.2182,6.2347,6.2356,6.2366,6.2489,0,0,6.2395,6.2399,0,0,0,0,0,0,0,0,6.1839,6.1859,6.2037,6.2042,6.2046,6.2164,6.2136,6.2291,6.2193,6.2137,6.2185,6.2181,6.2291,6.2305,6.2344,6.2497,6.2504,6.2396,6.2402,6.2406,6.2408,0,0,0,0,0,0,0,6.1829,6.1852,6.2085,6.204,6.2045,6.2045,6.2063,6.2165,6.223,6.2141,6.2142,6.2162,6.2293,6.2334,6.2347,6.2506,6.2396,6.2404,6.241,6.2414,6.277,6.2774,0,0,0,0,0,0,6.1814,6.1844,6.2079,6.209,6.1933,6.2053,6.2073,6.213,6.2229,6.2241,6.2164,6.2161,6.2319,6.2336,6.2353,6.2506,6.2406,6.2415,6.242,6.2767,6.2771,6.2775,0,0,0,0,0,0,6.1807,6.1835,6.2073,6.1967,6.1997,6.2062,6.2125,6.2135,6.2176,6.2246,6.2257,6.2195,6.2318,6.234,6.2456,6.2511,6.2419,6.2428,6.2762,6.2768,6.2773,6.281,0,0,0,0,0,0,6.1798,6.1832,6.1881,6.1968,6.2003,6.2173,6.2129,6.214,6.2193,6.219,6.2278,6.2289,6.2317,6.2441,6.2465,6.2523,6.2435,6.2757,6.2765,6.2771,6.2804,6.2816,6.2826,0,0,0,0,0,6.1786,6.1883,6.1883,6.1911,6.2065,6.2177,6.2196,6.2228,6.2197,6.2246,6.2291,6.2286,6.2501,6.2453,6.248,6.2541,6.2754,6.2763,6.2771,6.2799,6.2814,6.2826,0,0,0,0,0,0,6.1798,6.1895,6.1896,6.2024,6.2093,6.2177,6.2239,6.2242,6.2319,6.2313,6.2347,6.2367,6.2483,6.2524,6.2469,6.2667,6.2624,6.2638,6.2636,6.2651,6.2662,6.265,6.2443,0,0,0,0,0,6.1816,6.19,6.1979,6.2085,6.2119,6.2173,6.2223,6.2242,6.2313,6.2341,6.2395,6.2464,6.2547,6.2601,6.2681,6.281,6.2829,6.2865,6.2876,6.2885,6.2897,6.297,6.2987,6.2802,6.2802,6.2802,0,0,6.1853,6.1916,6.1967,6.2089,6.2144,6.223,6.2197,6.2289,6.2353,6.2355,6.2469,6.2511,6.2589,6.2713,6.2769,6.275,6.2953,6.2896,6.2902,6.291,6.298,6.2997,6.3013,6.2808,6.2807,6.2806,0,0,6.1965,6.2021,6.2116,6.2173,6.2257,6.2293,6.2316,6.24,6.2429,6.2544,6.2548,6.2623,6.2765,6.2822,6.2869,6.3004,6.3003,6.3029,6.3088,6.3158,6.3173,6.3186,6.3235,6.3252,6.3041,6.3041,6.3041,0,6.2001,6.2131,6.2164,6.2257,6.2311,6.2319,6.2415,6.2467,6.2573,6.261,6.2586,6.2767,6.282,6.2957,6.2991,6.3028,6.3055,6.302,6.3168,6.3181,6.3194,6.3242,6.326,6.3044,6.3043,6.3043,6.3043,0,6.2171,6.2262,6.2328,6.2433,6.2493,6.2587,6.2634,6.2691,6.2705,6.2742,6.286,6.2924,6.3019,6.3052,6.3065,6.3192,6.3178,6.3161,6.3119,6.3214,6.3259,6.3278,6.3048,6.3047,6.3046,6.3045,0,0,6.2295,6.2418,6.2442,6.249,6.2585,6.2655,6.2749,6.2843,6.2892,6.2965,6.3045,6.3166,6.3152,6.3205,6.3225,6.3286,6.3391,6.3262,6.3265,6.3285,6.3536,6.3549,6.357,6.339,6.3394,6.3397,6.353,0,6.2419,6.2589,6.2622,6.2769,6.2853,6.2862,6.2944,6.301,6.3048,6.3125,6.3166,6.3252,6.3226,6.3258,6.332,6.3365,6.3442,6.3356,6.3465,6.3468,6.3446,6.3593,6.3607,6.373,6.3548,6.3551,6.3553,0,6.2585,6.2665,6.2821,6.2906,6.2943,6.3016,6.3106,6.3179,6.3254,6.3277,6.3338,6.3351,6.3449,6.3402,6.3537,6.3478,6.3524,6.3553,6.3559,6.3571,6.3517,6.361,6.377,6.3789,6.3581,6.3579,6.3577,0,6.2662,6.2808,6.2921,6.2961,6.3063,6.3115,6.3159,6.3231,6.3286,6.3364,6.34,6.3487,6.3535,6.3602,6.3638,6.36,6.3771,6.3726,6.3793,6.3792,6.3829,6.3827,6.4,6.3857,6.3857,6.3857,6.3856,0,6.2798,6.2893,6.2957,6.3027,6.3134,6.317,6.3275,6.3318,6.3383,6.3461,6.3472,6.3544,6.3587,6.3665,6.3694,6.3802,6.3823,6.3845,6.3851,6.3845,6.3842,6.3876,6.3869,6.3862,6.386,6.386,6.3859,0,6.2902,6.2949,6.3073,6.3159,6.3183,6.3258,6.3332,6.3399,6.3437,6.3535,6.356,6.362,6.3713,6.3755,6.3869,6.3888,6.4012,6.4012,6.3988,6.399,6.4055,6.4049,6.4257,6.4286,6.4123,6.4125,6.4126,0,6.2986,6.306,6.3155,6.3209,6.3256,6.3341,6.3398,6.3437,6.3495,6.3587,6.3644,6.3737,6.3815,6.3962,6.4015,6.4102,6.4105,6.4172,6.4118,6.411,6.4108,6.4104,6.4112,6.4182,6.4184,6.4185,6.4186,0,6.3131,6.3151,6.3233,6.3324,6.3392,6.3465,6.3536,6.3579,6.3628,6.3693,6.379,6.3849,6.3967,6.406,6.4151,6.4196,6.42,6.4203,6.4223,6.4217,6.4201,6.4212,6.4015,6.4198,6.4197,6.4196,6.4195,6.4195,6.3229,6.3296,6.3374,6.3465,6.3523,6.359,6.3659,6.3706,6.3787,6.3888,6.3905,6.4007,6.4081,6.4205,6.4252,6.4332,6.4316,6.4345,6.4353,6.436,6.4365,6.4187,6.4349,6.4349,6.4348,6.4348,6.4348,0,6.3375,6.3426,6.351,6.3611,6.3683,6.3682,6.3761,6.3821,6.3912,6.3981,6.4057,6.4168,6.4259,6.4319,6.441,6.4463,6.4467,6.4486,6.4483,6.4493,6.4373,6.4347,6.4481,6.4481,6.4481,6.4481,6.4481,6.4481,6.346,6.3574,6.3603,6.3746,6.3796,6.3898,6.3944,6.4005,6.4061,6.4185,6.4261,6.43,6.4366,6.4463,6.4546,6.4561,6.4594,6.4614,6.4629,6.4515,6.4502,6.4488,6.4464,6.4621,6.4621,6.4743,6.4744,6.4745]}]]